Skip Page Navigation
NASA JPL Caltech
NASA Logo - Jet Propulsion Laboratory + View the NASA Portal
+ Near-Earth Object (NEO) Program
Search JPL
JPL Home Earth Solar System Stars & Galaxies Technology
JPL Solar System Dynamics
BODIES ORBITS EPHEMERIDES TOOLS PHYSICAL DATA DISCOVERY FAQ SITE MAP
JPL Small-Body Database Browser
Search: [ help ]  
4859 Fraknoi (1986 TJ2)
Classification: Main-belt Asteroid          SPK-ID: 2004859
Ephemeris | Orbit Diagram | Orbital Elements | Physical Parameters | Discovery Circumstances ]

[ hide orbit diagram ]
Orbit Diagram
Note: Make sure you have Java enabled on your browser to see the applet. This applet is provided as a 3D orbit visualization tool. The applet was implemented using 2-body methods, and hence should not be used for determining accurate long-term trajectories (over several years or decades) or planetary encounter circumstances. For accurate long-term ephemerides, please instead use our Horizons system.
Orbit Viewer

Additional Notes: the orbits shown in the applet are color coded. The planets are white lines, and the asteroid/comet is a blue line. The bright white line indicates the portion of the orbit that is above the ecliptic plane, and the darker portion is below the ecliptic plane. Likewise for the asteroid/comet orbit, the light blue indicates the portion above the ecliptic plane, and the dark blue the portion below the ecliptic plane.

Orbit Viewer applet originally written and kindly provided by Osamu Ajiki (AstroArts), and further modified by Ron Baalke (JPL).


Orbital Elements at Epoch 2456400.5 (2013-Apr-18.0) TDB
Reference: JPL 1 (heliocentric ecliptic J2000)
 Element Value Uncertainty (1-sigma)   Units 
e .1351269011492666 6.0135e-08  
a 2.272666252858135 1.4716e-08 AU
q 1.9655679047629 1.3571e-07 AU
i 6.412152059397334 6.4465e-06 deg
node 122.2619772103203 5.8306e-05 deg
peri 314.0611371539877 6.3819e-05 deg
M 223.7270813185789 2.759e-05 deg
tp 2456874.206101302220
(2014-Aug-04.70610130)
9.7547e-05 JED
period 1251.416628622112
3.43
1.2155e-05
3.328e-08
d
yr
n .287673978246863 2.7942e-09 deg/d
Q 2.579764600953371 1.6705e-08 AU
  Orbit Determination Parameters
   # obs. used (total)      960  
   data-arc span      12251 days (33.54 yr)  
   first obs. used      1979-09-21  
   last obs. used      2013-04-06  
   planetary ephem.      DE405  
   SB-pert. ephem.      SB405-CPV-2  
   condition code      0  
   fit RMS      .51685  
   data source      ORB  
   producer      Otto Matic  
   solution date      2013-Apr-29 13:13:55  

Additional Information
 Earth MOID = .986483 AU 
 T_jup = 3.591 
[ show covariance matrix ]

Ephemeris | Orbit Diagram | Orbital Elements | Physical Parameters | Discovery Circumstances ]

Physical Parameter Table
Parameter Symbol Value Units Sigma Reference Notes
absolute magnitude H 13.1 mag n/a PDS3 (MPC 28112)  
rotation period rot_per 7.846 h n/a Asteroid Lightcurve DataBase (Rev. 2013-May-01) Published Reference List:
[Warner, B.D. (2008) Minor Planet Bul. 35, 95-98.]

4859 Fraknoi (1986 TJ2)          Discovered 1986-Oct-07 by Bowell, E. at Flagstaff
Reference: DISCOVERY.DBLast Updated: 2003-08-29

Alternate Designations
 1986 TJ2 = 1979 SM1 = 1984 AP1 
Ephemeris | Orbit Diagram | Orbital Elements | Physical Parameters | Discovery Circumstances ]
ABOUT SSD CREDITS/AWARDS PRIVACY/COPYRIGHT GLOSSARY LINKS
FirstGov 2013-May-22 10:31 UT
(server date/time)  
NASA Home Page
Site Manager:   Donald K. Yeomans
Webmaster  Alan B. Chamberlin